Tracking 29040 objects as of 17-Jun-2024
HD Live streaming from Space Station
objects crossing your sky now

STARLINK-4072

Track STARLINK-4072 now!
10-day predictions
STARLINK-4072 is classified as:


NORAD ID: 52694
Int'l Code: 2022-053AQ
Perigee: 545.8 km
Apogee: 547.9 km
Inclination: 53.2 °
Period: 95.4 minutes
Semi major axis: 6917 km
RCS: Unknown
Launch date: May 18, 2022
Source: United States (US)
Launch site: AIR FORCE EASTERN TEST RANGE (AFETR)
Your satellite tracking list
Your tracking list is empty




NASA's NSSDC Master Catalog

Two Line Element Set (TLE):
1 52694U 22053AQ  24168.51626744  .00000773  00000-0  66624-4 0  9999
2 52694  53.2181  97.5681 0001477  80.2322 279.8837 15.08843589115866
Source of the keplerian elements: AFSPC